540  
NZUS59 KLOT 192209  
HRRLOT  
 
CHICAGO AREA WEATHER ROUNDUP  
NATIONAL WEATHER SERVICE CHICAGO/ROMEOVILLE IL  
500 PM CDT SUN MAY 19 2019  
 
NOTE: "FAIR" INDICATES FEW OR NO CLOUDS BELOW 12,000 FEET WITH NO  
SIGNIFICANT WEATHER AND/OR OBSTRUCTIONS TO VISIBILITY.  
 
* THESE STATIONS ARE NOT UNDER NWS QUALITY CONTROL. THEY ALSO MAY NOT  
REPORT WEATHER SUCH AS PRECIPITATION OR FOG.  
 
ILZ005-006-012>014-019>023-192300-  
NORTHEAST ILLINOIS  
 
CITY SKY/WX TMP DP RH WIND PRES REMARKS  
OHARE PTSUNNY 71 55 56 W21G30 29.60R  
MIDWAY PTSUNNY 70 57 63 W17G29 29.62R  
AURORA N/A 70 58 65 W28G36 29.64R  
LANSING* N/A 74 57 54 W24G30 29.63R  
JOLIET* CLOUDY 71 60 67 W13G18 29.65R  
WAUKEGAN N/A 70 54 56 W10G29 29.58R  
DUPAGE AIRPORT N/A 72 56 57 W23G33 29.63R  
WHEELING N/A 72 53 51 W25G40 29.61R  
KANKAKEE* N/A 74 57 55 W22G29 29.67R  
MORRIS* PTSUNNY 71 59 66 W15G21 29.65R  
LEWIS AIRPORT* CLOUDY 70 60 69 W15G22 29.65R  
NORTHERLY ISL N/A 70 54 56 NW21 N/A  
NORTHERLY IS NOT AVBL  
NORTHERLY ISL N/A 70 54 56 NW21 N/A  

 
 
WIZ051-052-058>065-066-070>072-192300-  
SOUTHEAST WISCONSIN  
 
CITY SKY/WX TMP DP RH WIND PRES REMARKS  
MILWAUKEE PTSUNNY 70 51 51 W24G35 29.56R  
KENOSHA* N/A 70 56 61 W25G37 29.58R  
RACINE* N/A 70 53 54 W22G36 29.57S  
BURLINGTON N/A 64 54 69 W15G23 29.59R  
WAUKESHA PTSUNNY 64 52 63 W24G32 29.58R  
WEST BEND CLOUDY 61 52 72 W20G25 29.56R  

 
 
INZ001>003-010>013-019-020-192300-  
NORTHWEST INDIANA  
 
CITY SKY/WX TMP DP RH WIND PRES REMARKS  
GARY* MOSUNNY 75 54 46 W14G29 29.62R  
MICHIGAN CITY* NOT AVBL  
RENSSELAER* NOT AVBL  
VALPARAISO N/A 78 54 43 W21G35 29.63R  

 
 
LMZ740>746-192300-  
SOUTHERN LAKE MICHIGAN  
 
STATION/POSITION TIME SKY/WX TEMP WIND PRES VSBY  
AIR DIR/SP/G  
(UTC) (F) (DEG/KT/KT) (MB) (MI)  
HARRISON CRIB 2140 71 270/ 24/ 26 N/A  
NORTHERLY ISL 2200 69 270/ 7/ 19 N/A  
CALUMET HARBOR 2148 74 230/ 14/ 21 1002.3R  
BURNS HARBOR 2140 64 280/ 12/ 14 1003.4R  
MICHIGAN CITY 2140 62 210/ 13/ 14 N/A  

 
 
ABBREVIATIONS USED IN REMARKS  
TC - TEMPERATURE IN CELSIUS  
WCI - WIND CHILL INDEX  
HX - HEAT INDEX  
VSB - VISIBILITY  

 
 
 
CLICK HERE TO GO TO PREVIOUS BULLETINS.

The Nexlab IL Page
The Nexlab IN Page Main Text Page